Cook, MN

9:41 AM CDT on May 25, 2017 (GMT -0500)
Cook Municipal

Weather History for KCQM - January, 2013

Change the Weather History Date:

Friday, January 18, 2013

  Actual Average Record
Temperature  
Mean Temperature 3 °F -  
Max Temperature 17 °F 14 °F 39 °F (2017)
Min Temperature -11 °F 0 °F -27 °F (1997)
Degree Days  
Heating Degree Days 62    
Moisture  
Dew Point 6 °F    
Average Humidity 88    
Maximum Humidity 100    
Minimum Humidity 77    
Precipitation  
Precipitation 0.02 in - - ()
Sea Level Pressure  
Sea Level Pressure 29.86 in    
Wind  
Wind Speed 1 mph (East)    
Max Wind Speed 6 mph    
Max Gust Speed -    
Visibility 6 miles    
Events Snow    
Averages and records for this station are not official NWS values.
T = Trace of Precipitation, MM = Missing Value Source: NWS Daily Summary

Daily Weather History Graph

Daily Weather History Graph

Search for Another Location

Airport or City:

Trip Planner

Search our weather history database for the weather conditions in past years. The results will help you decide how hot, cold, wet, or windy it might be!

Date:

Astronomy

Jan. 18, 2013 Rise Set
Actual Time 7:52 AM CST 4:50 PM CST
Civil Twilight 7:18 AM CST 5:25 PM CST
Nautical Twilight 6:39 AM CST 6:03 PM CST
Astronomical Twilight 6:02 AM CST 6:40 PM CST
Moon 10:54 AM CST (1/18) 12:16 AM CST (1/18)
Length of Visible Light 10h 07m
Length of Day
8h 57m
Waxing Crescent, 47% of the Moon is Illuminated
Jan 18
Waxing Crescent
Jan 18
First Quarter
Jan 26
Full
Feb 3
Last Quarter
Feb 10
New

Hourly Weather History & Observations

Time (CST) Temp. Windchill Dew Point Humidity Pressure Visibility Wind Dir Wind Speed Gust Speed Precip Events Conditions
12:17 AM -11.2 °F - -14.8 °F 84% 30.18 in 10.0 mi Calm Calm - N/A   Scattered Clouds
12:36 AM -9.4 °F - -14.8 °F 77% 30.18 in 10.0 mi Calm Calm - N/A   Scattered Clouds
12:56 AM -7.6 °F - -11.2 °F 84% 30.18 in 10.0 mi Calm Calm - N/A   Overcast
1:17 AM -5.8 °F - -9.4 °F 84% 30.17 in 10.0 mi Calm Calm - N/A   Overcast
1:36 AM -5.8 °F - -9.4 °F 84% 30.15 in 10.0 mi Calm Calm - N/A   Overcast
1:57 AM -4.0 °F - -7.6 °F 85% 30.14 in 10.0 mi Calm Calm - N/A   Overcast
2:17 AM -2.2 °F - -7.6 °F 78% 30.13 in 10.0 mi Calm Calm - N/A   Overcast
2:36 AM -2.2 °F - -5.8 °F 85% 30.12 in 10.0 mi Calm Calm - N/A   Overcast
2:57 AM -0.4 °F - -5.8 °F 78% 30.11 in 10.0 mi Calm Calm - N/A   Overcast
3:17 AM -0.4 °F - -5.8 °F 78% 30.11 in 10.0 mi Calm Calm - N/A   Overcast
3:36 AM -0.4 °F - -5.8 °F 78% 30.10 in 10.0 mi Calm Calm - N/A   Overcast
3:57 AM -0.4 °F - -4.0 °F 85% 30.08 in 3.0 mi Calm Calm - N/A Snow Light Snow
4:16 AM 1.4 °F - -2.2 °F 85% 30.07 in 1.8 mi Calm Calm - N/A Snow Light Snow
4:37 AM 1.4 °F -6.2 °F -2.2 °F 85% 30.05 in 1.2 mi East 3.5 mph - N/A Snow Light Snow
4:57 AM 1.4 °F -6.2 °F -2.2 °F 85% 30.02 in 1.5 mi ESE 3.5 mph - N/A Snow Light Snow
5:16 AM 1.4 °F -8.3 °F -2.2 °F 85% 29.99 in 1.8 mi East 4.6 mph - N/A Snow Light Snow
5:37 AM 1.4 °F -6.2 °F -2.2 °F 85% 29.98 in 1.5 mi East 3.5 mph - 0.01 in Snow Light Snow
5:57 AM 1.4 °F - -0.4 °F 92% 29.97 in 1.0 mi Calm Calm - N/A Snow Snow
6:16 AM 3.2 °F - -0.4 °F 85% 29.95 in 1.2 mi Calm Calm - N/A Snow Light Snow
6:37 AM 3.2 °F -4.2 °F -0.4 °F 85% 29.94 in 1.2 mi East 3.5 mph - N/A Snow Light Snow
6:57 AM 3.2 °F - -0.4 °F 85% 29.93 in 2.0 mi Calm Calm - N/A Snow Light Snow
7:16 AM 3.2 °F -6.2 °F 1.4 °F 92% 29.92 in 3.0 mi East 4.6 mph - N/A Snow Light Snow
7:36 AM 5.0 °F -4.1 °F 1.4 °F 85% 29.90 in 4.0 mi East 4.6 mph - N/A Snow Light Snow
7:57 AM 3.2 °F -4.2 °F 1.4 °F 92% 29.90 in 3.0 mi ENE 3.5 mph - N/A Snow Light Snow
8:16 AM 5.0 °F -2.1 °F 1.4 °F 85% 29.89 in 1.5 mi East 3.5 mph - N/A Snow Light Snow
8:36 AM 5.0 °F -4.1 °F 1.4 °F 85% 29.89 in 1.2 mi East 4.6 mph - N/A Snow Light Snow
8:57 AM 6.8 °F -0.1 °F 3.2 °F 85% 29.87 in 1.5 mi ESE 3.5 mph - N/A Snow Light Snow
9:16 AM 6.8 °F -2.0 °F 3.2 °F 85% 29.86 in 1.8 mi East 4.6 mph - N/A Snow Light Snow
9:37 AM 8.6 °F 2.0 °F 5.0 °F 85% 29.86 in 3.0 mi ESE 3.5 mph - N/A Snow Light Snow
9:57 AM 10.4 °F 4.0 °F 6.8 °F 85% 29.85 in 5.0 mi East 3.5 mph - N/A Snow Light Snow
10:16 AM 10.4 °F 2.2 °F 6.8 °F 85% 29.84 in 10.0 mi ESE 4.6 mph - N/A   Overcast
10:37 AM 12.2 °F 4.3 °F 6.8 °F 79% 29.83 in 10.0 mi ESE 4.6 mph - N/A   Overcast
10:57 AM 12.2 °F 6.1 °F 8.6 °F 85% 29.82 in 10.0 mi ESE 3.5 mph - N/A Snow Light Snow
11:16 AM 12.2 °F 6.1 °F 8.6 °F 85% 29.81 in 7.0 mi ESE 3.5 mph - N/A Snow Light Snow
11:37 AM 14.0 °F 6.5 °F 10.4 °F 86% 29.79 in 5.0 mi East 4.6 mph - N/A Snow Light Snow
11:57 AM 14.0 °F - 10.4 °F 86% 29.77 in 5.0 mi Calm Calm - N/A Snow Light Snow
12:16 PM 14.0 °F 6.5 °F 10.4 °F 86% 29.76 in 3.0 mi ESE 4.6 mph - N/A Snow Light Snow
12:37 PM 15.8 °F - 10.4 °F 79% 29.76 in 3.0 mi Calm Calm - N/A Snow Light Snow
12:57 PM 15.8 °F 7.2 °F 10.4 °F 79% 29.74 in 2.5 mi SE 5.8 mph - N/A Snow Light Snow
1:16 PM 15.8 °F 8.6 °F 10.4 °F 79% 29.72 in 1.0 mi SE 4.6 mph - N/A Snow Light Snow
1:37 PM 15.8 °F - 12.2 °F 86% 29.72 in 1.0 mi Calm Calm - N/A Snow Light Snow
1:56 PM 15.8 °F - 12.2 °F 86% 29.73 in 1.0 mi Calm Calm - N/A Snow Light Snow
2:17 PM 15.8 °F - 12.2 °F 86% 29.73 in 0.5 mi Calm Calm - N/A Snow Snow
2:37 PM 15.8 °F - 12.2 °F 86% 29.72 in 0.5 mi Calm Calm - 0.01 in Snow Snow
2:56 PM 15.8 °F - 14.0 °F 93% 29.73 in 0.5 mi Calm Calm - N/A Snow Snow
3:17 PM 15.8 °F - 12.2 °F 86% 29.71 in 1.8 mi Calm Calm - N/A Snow Light Snow
3:37 PM 15.8 °F - 12.2 °F 86% 29.71 in 2.5 mi Calm Calm - N/A Snow Light Snow
3:56 PM 17.6 °F 12.3 °F 14.0 °F 86% 29.70 in 3.0 mi East 3.5 mph - N/A Snow Light Snow
4:17 PM 17.6 °F - 14.0 °F 86% 29.71 in 7.0 mi Calm Calm - N/A Snow Light Snow
4:36 PM 17.6 °F - 14.0 °F 86% 29.71 in 10.0 mi Calm Calm - N/A Snow Light Snow
4:57 PM 17.6 °F - 14.0 °F 86% 29.72 in 10.0 mi Calm Calm - N/A   Overcast
5:17 PM 17.6 °F - 14.0 °F 86% 29.73 in 7.0 mi Calm Calm - N/A Snow Light Snow
5:36 PM 17.6 °F - 14.0 °F 86% 29.74 in 5.0 mi Calm Calm - N/A Snow Light Snow
5:57 PM - - 15.8 °F N/A% 29.74 in 10.0 mi Calm Calm - N/A   Overcast
6:17 PM 17.6 °F - 15.8 °F 93% 29.75 in 10.0 mi Calm Calm - N/A   Overcast
6:36 PM 17.6 °F - 15.8 °F 93% 29.74 in 10.0 mi Calm Calm - N/A   Overcast
6:57 PM 17.6 °F - 15.8 °F 93% 29.75 in 10.0 mi Calm Calm - N/A   Overcast
7:17 PM 15.8 °F - 15.8 °F 100% 29.75 in 10.0 mi Calm Calm - N/A   Overcast
7:36 PM 15.8 °F - 14.0 °F 93% 29.75 in 10.0 mi Calm Calm - N/A   Overcast
7:57 PM 15.8 °F - 14.0 °F 93% 29.74 in 10.0 mi Calm Calm - N/A   Overcast
8:16 PM 15.8 °F - 14.0 °F 93% 29.74 in 10.0 mi Calm Calm - N/A   Overcast
8:37 PM 15.8 °F - 15.8 °F 100% 29.72 in 10.0 mi Calm Calm - N/A   Overcast
8:56 PM 15.8 °F - 15.8 °F 100% 29.73 in 10.0 mi Calm Calm - N/A   Overcast
9:36 PM 15.8 °F - 15.8 °F 100% 29.72 in 5.0 mi Calm Calm - N/A Snow Light Snow
9:57 PM 15.8 °F - 15.8 °F 100% 29.73 in 10.0 mi Calm Calm - N/A   Overcast
10:17 PM 15.8 °F - 15.8 °F 100% 29.72 in 10.0 mi Calm Calm - N/A   Overcast
10:36 PM 15.8 °F - 15.8 °F 100% 29.71 in 10.0 mi Calm Calm - N/A Snow Light Snow
10:57 PM 15.8 °F - 15.8 °F 100% 29.72 in 10.0 mi Calm Calm - N/A Snow Light Snow
11:17 PM 15.8 °F - 15.8 °F 100% 29.71 in 10.0 mi Calm Calm - N/A Snow Light Snow
11:36 PM 15.8 °F - 15.8 °F 100% 29.71 in 10.0 mi Calm Calm - N/A Snow Light Snow
11:57 PM 17.6 °F - 15.8 °F 93% 29.70 in 7.0 mi Calm Calm - N/A   Overcast